Weather in Palmanova

Spain     39°31′38″N   2°32′21″E
temp.,
°C
wind,
m/s
gust,
m/s
humid.,
%
clouds,
%
prec.,
mm/h
press.,
hPa
HPBL,
m
9 march, tue
tue901:00+11n238192 0.3 1015167
04:00+11nne228094 0.0 1014106
07:00+11n348396 0.2 1016232
10:00+13nne346695 0.1 1017878
13:00+14ne125672 0.1 10181021
16:00+13n226689 0.0 1017680
19:00+11n117649 0.1 1017216
22:00+11sse23784 0.0 1019366
10 march, wed
wed1001:00+10ssw12796 0.1 1020261
04:00+11w34790 0.3 1020499
07:00+10nnw347923 0.4 1021355
10:00+12nw34650 0.0 1022561
13:00+13nw56600 0.0 1024811
16:00+13nw56580 0.0 1023651
19:00+11nw34680 0.0 1023188
22:00+10w12730 0.0 1025164
11 march, thu
thu1101:00+11wsw35820 0.0 1025331
04:00+11wsw46840 0.0 1024381
07:00+12sw46870 0.0 1024346
10:00+14sw67825 0.0 1025609
13:00+15sw68785 0.0 1025590
16:00+15ssw688116 0.0 1024494
19:00+13ssw579125 0.0 1023242
22:00+13sw469037 0.0 1023217
12 march, fri
fri1201:00+13ssw479054 0.0 1022240
04:00+13sw468827 0.0 1020221
07:00+13sw578958 0.0 1020246
10:00+15sw578344 0.0 1020374
13:00+16wsw347334 0.0 1020375
16:00+16wnw337058 0.0 1018361
19:00+14n347473 0.0 101954
22:00+11ene688867 0.0 1021271
13 march, sat
sat1301:00+11ene687951 0.0 1022353
04:00+11ne457580 0.0 1021271
07:00+10ne237740 0.0 1022184
10:00+13e22680 0.0 1023486
13:00+14ssw33610 0.0 1023667
16:00+14ssw436544 0.0 1021597
19:00+12ssw337667 0.0 1020289
22:00+12ssw238282 0.0 1021286